Date,TemperatureHighF,TemperatureAvgF,TemperatureLowF,DewpointHighF,DewpointAvgF,DewpointLowF,HumidityHigh,HumidityAvg,HumidityLow,PressureMaxIn,PressureMinIn,WindSpeedMaxMPH,WindSpeedAvgMPH,GustSpeedMaxMPH,PrecipitationSumIn
2013-6-1,68.8,53.1,39.2,29.4,22.4,14.1,50,31,17,29.92,29.67,25,7,30,0.00
2013-6-2,74.9,56.3,32.9,32.5,27.1,21.8,76,38,15,29.89,29.48,18,3,34,0.00
2013-6-3,75.0,59.2,38.9,33.6,27.9,23.5,55,33,16,29.60,29.41,30,6,35,0.00
2013-6-4,72.3,58.0,40.5,36.6,31.6,28.2,64,39,23,29.68,29.50,29,5,40,0.00
2013-6-5,73.2,56.2,40.9,44.0,35.6,21.9,82,54,15,29.81,29.52,23,4,34,0.00
2013-6-6,74.8,56.9,36.9,41.6,34.0,22.7,85,49,15,29.89,29.58,20,4,31,0.00
2013-6-7,70.9,55.4,41.3,41.1,35.7,30.5,76,50,27,29.83,29.49,24,4,29,0.00
2013-6-8,76.2,60.7,41.4,38.1,31.8,23.2,68,38,15,29.60,29.43,22,6,30,0.00
2013-6-9,82.5,63.3,40.2,36.1,31.4,23.9,77,37,12,29.74,29.54,26,5,29,0.00
2013-6-10,86.4,66.4,44.1,36.8,31.6,28.1,55,30,13,29.67,29.41,29,4,33,0.00
2013-6-11,80.6,66.5,45.6,34.3,26.5,19.8,47,25,11,29.63,29.42,27,7,38,0.00
2013-6-12,83.3,66.9,45.3,33.5,26.7,21.9,41,23,14,29.79,29.52,22,7,27,0.00
2013-6-13,81.2,65.3,46.3,40.1,30.7,22.7,47,29,15,29.71,29.52,29,5,53,0.00
2013-6-14,80.7,66.4,50.5,39.8,31.8,20.3,56,31,12,29.64,29.40,21,4,30,0.00
2013-6-15,76.4,57.7,40.9,36.0,30.5,24.5,67,40,16,29.71,29.53,27,4,38,0.00
2013-6-16,71.0,59.8,47.2,43.3,34.8,28.6,65,40,26,29.86,29.60,28,8,41,0.00
2013-6-17,78.9,58.1,40.5,41.1,35.6,25.5,76,48,15,29.95,29.62,18,5,29,0.00
2013-6-18,75.7,58.5,40.3,43.6,35.4,27.8,83,46,20,29.88,29.50,36,4,40,0.00
2013-6-19,81.2,61.7,39.1,40.8,27.3,14.4,79,35,9,29.71,29.36,20,4,32,0.00
2013-6-20,81.0,63.7,44.7,28.4,21.0,13.5,35,20,12,29.55,29.39,22,4,27,0.00
2013-6-21,80.9,63.5,41.1,27.6,23.1,18.5,41,23,12,29.64,29.40,21,4,33,0.00
2013-6-22,78.3,63.7,43.9,28.0,23.1,19.2,38,23,13,29.61,29.39,21,5,36,0.00
2013-6-23,76.6,61.4,41.8,30.8,25.6,19.5,42,27,15,29.64,29.41,22,4,30,0.00
2013-6-24,77.0,60.7,40.6,42.0,26.4,20.6,53,31,13,29.65,29.44,23,5,35,0.00
2013-6-25,78.7,66.7,52.0,33.0,27.2,21.3,32,23,19,29.64,29.40,25,8,31,0.00
2013-6-26,85.6,68.0,45.5,36.5,32.5,27.8,50,29,14,29.76,29.53,17,3,19,0.00
2013-6-27,89.8,72.5,52.9,40.7,34.0,30.9,45,27,13,29.77,29.59,27,5,34,0.00
2013-6-28,86.6,68.8,51.8,51.3,40.5,34.7,63,38,17,29.84,29.62,15,3,26,0.00
2013-6-29,78.2,62.1,49.0,51.1,44.4,41.0,83,55,28,29.95,29.65,14,2,29,0.03
2013-6-30,80.2,59.5,45.4,51.2,44.8,37.7,91,64,23,29.92,29.64,30,4,33,0.11